Regional Weather Roundup
Issued by NWS Newport/Morehead, NC

Home | Current Version | Previous Version | Text Only | Print | Product List | Glossary On
Versions: 1 2 3 4 5 6 7 8 9 10 11 12 13 14 15 16 17 18 19 20 21 22 23 24 25 26 27 28 29 30 31 32 33 34 35 36 37 38 39 40 41 42 43 44 45 46 47 48 49 50
000
ASUS42 KMHX 250125
RWRMHX
WEATHER ROUNDUP FOR EASTERN NORTH CAROLINA
NATIONAL WEATHER SERVICE NEWPORT/MOREHEAD CITY NC
900 PM EDT SUN SEP 24 2017

NOTE: "FAIR" INDICATES FEW OR NO CLOUDS BELOW 12,000 FEET
WITH NO SIGNIFICANT WEATHER AND/OR OBSTRUCTIONS TO VISIBILITY

NCZ015>017-031-032-045>047-102-103-250200-
NORTH COAST

CITY           SKY/WX    TMP DP  RH WIND       PRES   REMARKS
EDENTON        PTCLDY    72  65  81 CALM      30.02S
ELIZABETH CITY MOCLDY    72  68  87 NE7       30.02R
KITTY HAWK     PTCLDY    70  66  88 CALM      30.00R
MANTEO         MOCLDY    71  68  89 NE14      30.00F

$$

NCZ045>047-081-094-103-104-250200-
CENTRAL COAST

CITY           SKY/WX    TMP DP  RH WIND       PRES   REMARKS
FRISCO         CLOUDY    73  71  93 NE12G18   29.96S

$$

NCZ095-097-098-100-101-250200-
SOUTHERN COAST

CITY           SKY/WX    TMP DP  RH WIND       PRES   REMARKS
BEAUFORT       PTCLDY    74  68  81 NE9       29.95S
CEDAR ISLAND   NOT AVBL
JACKSONVILLE   PTCLDY    75  71  87 NE8       29.96R
PINEY ISLAND     N/A    N/A N/A N/A NE16      29.95F
WILMINGTON     CLOUDY    74  69  85 N6        29.95S


$$

NCZ011>013-027>030-043-044-078>080-089-090>093-098-250200-
COASTAL PLAIN

CITY           SKY/WX    TMP DP  RH WIND       PRES   REMARKS
AHOSKIE        PTCLDY    69  60  73 CALM      30.02S
CLINTON        PTCLDY    72  68  89 CALM      29.99R
ELIZABETHTOWN  NOT AVBL
GOLDSBORO      PTCLDY    76  65  70 NE9       29.97R
GREENVILLE     CLOUDY    70  64  83 NE3       30.02R
HAVELOCK       MOCLDY    75  67  76 NE10      29.97S
KENANSVILLE    CLOUDY    68  66  94 CALM      29.99R
KINSTON        PTCLDY   N/A N/A N/A NE7       30.00R
NEW BERN       PTCLDY    74  65  73 NE7       29.98S
RICHLANDS      CLOUDY    71  67  87 N5        29.98R
ROCKY MOUNT    PTCLDY    71  60  68 NE8       30.01R
WASHINGTON     PTCLDY    71  65  80 NE6       30.00S
WHITEVILLE     CLOUDY    74  69  85 CALM      29.97S

$$

AMZ130-135-150-152-154-156-158-170-250-252-270-ANZ085-086-088-633-658-670-250200-
MARINE OBSERVATIONS

STATION/POSITION TIME  TEMP    WIND        PRES    WAVE   SWELL
                       AIR SEA DIR/SP/G            HT/PER HT/PER
                 (UTC) (F)     (DEG/KT/KT) (MB)    (FT/S) (FT/S)
CHESAPEAKE LIGHT NOT AVBL
64 E VA BEACH    0050   71 71   50/ 14/ 16 1016.4    8/12   8/12
DUCK             0100   72 77   50/ 13/ 14 1015.9
2 E DUCK         0100      76                N/A     5/14   3/14
OREGON INLET     0100   72 77   40/ 12/ 16 1015.5
13E OREGON INLT  0048      75                N/A     7/14   7/14
HATTERAS CG      0100   74 78   40/ 13/ 17 1014.5
DIAMOND BUOY     0050   75 81   30/ 21/ 23 1013.4   10/16   8/16
CAPE LOOKOUT     0100   76      30/ 20/ 22 1013.7
BEAUFORT LAB     0100   75 77   20/  9/ 14 1013.6
30 SE NEW RVR IN 0108   78      50/ 19/ 25 1013.2
30 SE NEW RVR IN NOT AVBL
27 SE WRIGHTSVLE 0108   79 80   80/ 19/ 27 1013.1
5 SE WRIGHTSVLE  0108   78 78   50/ 12/ 19 1013.7
225 S CAPE HAT   0050   80 81   20/ 31/ 39 1003.3   19/11  10/13
41 SE CHARLESTON 0100   80      30/ 17/ 21 1012.7

$$



USA.gov is the U.S. government's official web portal to all federal, state and local government web resources and services.